Вернуться в каталог

GSAT 19

АктивенСвязьGEO
NORAD 42747·PAYLOAD·🇮🇳 India

Запущен Jun 5, 2017 с Satish Dhawan Space Centre

Loading…

TLE

СвежийSource: Space-Track

Эпоха: Sep 14, 2026, 14:01 UTC

1 42747U 17031A   26257.58463439  .00000117  00000-0  00000-0 0  9999
2 42747   0.0253 109.4827 0003639   4.3184 138.0996  1.00273651 34040

Отслеживайте GSAT 19 в реальном времени с AllMySat

Download on the App Store